Flag for Belgium Weather past 2 weeks in Mechelen, Belgium

Now
43 °F

Passing clouds.


Feels Like: 39 °F
Forecast: 49 / 63 °F
Wind: 6 mph from North

Location: Brussels National Airport


UV Index: 3 (Moderate)

Visibility: N/A


Pressure: 30.04 "Hg

Humidity: 81%

Dew point: 37 °F

Location of MechelenLocation

Historic Weather in Mechelen

°F

Mechelen temperature yesterday

Maximum temperature yesterday: 54 °F (at 2:50 PM)
Minimum temperature yesterday: 43 °F (at 5:20 AM)
Average temperature yesterday: 48 °F

Past Weeks' High & Low Weather Summary

 TemperatureHumidityPressure
High70 °F (Apr 7, 2:20 PM)100% (Apr 12, 7:20 AM)30.42 "Hg (Apr 12, 7:20 AM)
Low34 °F (Apr 16, 5:50 AM)3% (Apr 15, 8:20 AM)29.68 "Hg (Apr 4, 2:20 AM)
Average51 °F69%30.10 "Hg
* Reported Apr 4 2:20 AM — Apr 19 2:50 AM, Mechelen, Weather by CustomWeather, © 2014

Note: Actual official high and low records may vary slightly from our data, if they occured in-between our weather recording intervals... More about our weather records

Advertising

Historic Weather Conditions — Data for Previous 24 hours

 ConditionsComfort  
Time TempWeatherWind HumidityBarometerVisibility
2:50 AM
Apr 19
41 °FPassing clouds.6 mph87%30.04 "HgN/A
2:20 AM39 °FPassing clouds.3 mph87%30.04 "HgN/A
1:50 AM41 °FPassing clouds.6 mph81%30.04 "HgN/A
1:20 AM43 °FPassing clouds.7 mph76%30.04 "HgN/A
12:50 AM45 °FPassing clouds.8 mph71%30.04 "HgN/A
12:20 AM46 °FPassing clouds.8 mph66%30.04 "HgN/A
11:50 PM
Apr 18
45 °FPassing clouds.6 mph71%30.04 "HgN/A
10:50 PM45 °FPassing clouds.8 mph76%30.04 "HgN/A
10:20 PM45 °FPassing clouds.7 mph76%30.04 "HgN/A
9:50 PM45 °FPassing clouds.12 mph71%30.04 "HgN/A
9:20 PM46 °FPassing clouds.12 mph71%30.04 "HgN/A
8:50 PM48 °FPassing clouds.13 mph66%30.04 "HgN/A
8:20 PM50 °FPassing clouds.14 mph62%30.01 "HgN/A
7:50 PM48 °FPassing clouds.6 mph71%30.01 "HgN/A
7:20 PM50 °FScattered clouds.9 mph62%30.04 "HgN/A
6:50 PM50 °FScattered clouds.12 mph62%30.04 "HgN/A
6:20 PM50 °FSprinkles. Scattered clouds.13 mph67%30.04 "HgN/A
5:50 PM52 °FPassing clouds.12 mph54%30.04 "HgN/A
5:20 PM52 °FPassing clouds.16 mph54%30.04 "HgN/A
4:50 PM54 °FPassing clouds.15 mph44%30.04 "HgN/A
4:20 PM54 °FPassing clouds.12 mph47%30.04 "HgN/A
3:50 PM52 °FPassing clouds.14 mph50%30.04 "HgN/A
3:20 PM52 °FPassing clouds.14 mph54%30.04 "HgN/A
2:50 PM54 °FScattered clouds.12 mph51%30.04 "HgN/A
2:20 PM52 °FScattered clouds.13 mph50%30.04 "HgN/A
1:50 PM52 °FScattered clouds.14 mph54%30.04 "HgN/A
1:20 PM50 °FPassing clouds.15 mph54%30.04 "HgN/A
12:50 PM52 °FScattered clouds.15 mph47%30.04 "HgN/A
12:20 PM50 °FScattered clouds.12 mph54%30.04 "HgN/A
11:50 AM50 °FScattered clouds.12 mph54%30.04 "HgN/A
11:20 AM48 °FScattered clouds.12 mph66%30.04 "HgN/A
10:50 AM50 °FScattered clouds.9 mph58%30.04 "HgN/A
10:20 AM48 °FScattered clouds.10 mph66%30.01 "HgN/A
9:50 AM45 °FScattered clouds.8 mph81%30.01 "HgN/A
9:20 AM48 °FScattered showers. Partly sunny.14 mph71%30.01 "HgN/A
8:50 AM48 °FScattered clouds.7 mph76%30.01 "HgN/A
8:20 AM46 °FPassing clouds.6 mph82%30.01 "HgN/A
7:50 AM45 °FPassing clouds.6 mph81%30.01 "HgN/A
7:20 AM43 °FPassing clouds.5 mph87%29.98 "HgN/A
6:50 AM43 °FClear.6 mph87%29.98 "Hg10 mi
6:20 AM43 °FClear.6 mph87%29.98 "Hg10 mi
5:50 AM43 °FClear.5 mph87%29.98 "Hg10 mi
5:20 AM43 °FClear.5 mph87%29.98 "Hg10 mi
4:50 AM45 °FPassing clouds.5 mph87%29.98 "HgN/A
4:20 AM46 °FClear.6 mph87%29.98 "Hg10 mi
Weather by CustomWeather, © 2014

See weather overview